Garnett Industrial Airport (K68)
Garnett, KS
Field Elevation: 989
Lat: 38°16.64N  Long: 95°12.91W
CTAF/Unicom Freq: 122.8000
   
     For Weather-by-Phone, call 785-448-3254
Weather Advisories
10/25/2014 03:26 Z
Altimeter 30.02" Hg
Wind 220° @ 6 KT
Gusts --
Visibility 2 SM
Temperature 18° C (64° F)
Dewpoint 17° C (63° F)
Relative Humidity 93%
Density Altitude --
Condensation Altitude 1,500 feet
  Wind and Runways
Indicated Runway = 19
History
 
 
More Info
All DigiWx sites map
NOAA Forecast
 
Airport IQ 5010
(FLV) Sherman Airfield
(GRE) Greenville
 
about DigiWx
 
FAA Disclaimer: The data displayed is for advisory purposes only and is not to be used for flight planning or operations. For official data, please call 785-448-3254 to hear the current automated AWOS voice message.
  METAR K68 250326Z AUTO 22006KT 2SM 18/17 A3002